| time (UTC) | temp F | wind direction | speed knots | gust knots | rain 1hr in | rain 24hr in | rain mn in | humidity % | barometer mb |
| 20260902093025 | 68 | 180 | 9.6 | 0.0 | 0.00 | 0.00 | 0.00 | 100 | 1013.3 |
| 20260902091516 | 68 | 174 | 9.6 | 0.0 | 0.00 | 0.00 | 0.00 | 100 | 1013.4 |
| 20260902090007 | 68 | 188 | 8.7 | 0.0 | 0.00 | 0.00 | 0.00 | 100 | 1013.3 |
| 20260902084658 | 69 | 178 | 8.7 | 0.0 | 0.00 | 0.00 | 0.00 | 100 | 1013.4 |
| 20260902083057 | 69 | 186 | 7.8 | 0.0 | 0.00 | 0.00 | 0.00 | 100 | 1013.7 |
| 20260902081540 | 69 | 178 | 8.7 | 0.0 | 0.00 | 0.00 | 0.00 | 100 | 1013.6 |
| 20260902080032 | 69 | 188 | 7.0 | 0.0 | 0.00 | 0.00 | 0.00 | 100 | 1013.6 |
| 20260902073013 | 69 | 187 | 7.0 | 0.0 | 0.00 | 0.00 | 0.00 | 100 | 1013.6 |
| 20260902071504 | 69 | 186 | 7.0 | 0.0 | 0.00 | 0.00 | 0.00 | 100 | 1013.6 |
| 20260902070056 | 69 | 180 | 6.1 | 0.0 | 0.00 | 0.00 | 0.00 | 100 | 1013.5 |
| 20260902064545 | 69 | 182 | 6.1 | 0.0 | 0.00 | 0.00 | 0.00 | 100 | 1013.5 |
| 20260902063038 | 69 | 181 | 6.1 | 0.0 | 0.00 | 0.00 | 0.00 | 100 | 1013.6 |
| 20260902061631 | 69 | 178 | 7.0 | 0.0 | 0.00 | 0.00 | 0.00 | 100 | 1013.6 |
| 20260902060027 | 70 | 181 | 5.2 | 0.0 | 0.00 | 0.00 | 0.00 | 100 | 1013.8 |
| 20260902054519 | 70 | 182 | 5.2 | 0.0 | 0.00 | 0.00 | 0.00 | 100 | 1013.7 |
| 20260902053005 | 70 | 184 | 6.1 | 0.0 | 0.00 | 0.00 | 0.00 | 100 | 1013.6 |
| 20260902051653 | 70 | 182 | 5.2 | 0.0 | 0.00 | 0.00 | 0.00 | 100 | 1013.6 |
| 20260902050043 | 70 | 182 | 5.2 | 0.0 | 0.00 | 0.00 | 0.00 | 100 | 1013.7 |
| 20260902044532 | 71 | 174 | 4.3 | 0.0 | 0.00 | 0.00 | 0.00 | 100 | 1013.7 |
| 20260902043124 | 71 | 180 | 5.2 | 0.0 | 0.00 | 0.00 | 0.00 | 100 | 1013.7 |
| 20260902041513 | 71 | 181 | 6.1 | 0.0 | 0.00 | 0.00 | 0.00 | 100 | 1013.5 |
| 20260902040004 | 71 | 173 | 5.2 | 0.0 | 0.00 | 0.00 | 0.00 | 100 | 1013.4 |
| 20260902034554 | 71 | 181 | 5.2 | 0.0 | 0.00 | 0.00 | 0.14 | 100 | 1013.3 |
| 20260902033100 | 72 | 174 | 6.1 | 0.0 | 0.00 | 0.00 | 0.14 | 100 | 1013.3 |
| 20260902031639 | 72 | 176 | 3.5 | 0.0 | 0.00 | 0.00 | 0.14 | 100 | 1013.4 |
| 20260902030129 | 72 | 172 | 0.0 | 0.0 | 0.00 | 0.00 | 0.14 | 100 | 1013.4 |
| 20260902024618 | 73 | 51 | 0.0 | 0.0 | 0.00 | 0.00 | 0.14 | 100 | 1013.4 |
| 20260902023008 | 73 | 49 | 0.0 | 0.0 | 0.00 | 0.00 | 0.14 | 100 | 1013.6 |
| 20260902020052 | 73 | 42 | 0.0 | 0.0 | 0.00 | 0.00 | 0.14 | 100 | 1013.6 |
| 20260902014644 | 73 | 42 | 0.0 | 0.0 | 0.00 | 0.00 | 0.14 | 100 | 1013.5 |
| 20260902013034 | 73 | 42 | 0.0 | 0.0 | 0.00 | 0.00 | 0.14 | 100 | 1013.6 |
| 20260902011526 | 73 | 42 | 0.0 | 0.0 | 0.00 | 0.00 | 0.14 | 100 | 1013.6 |
| 20260902004609 | 73 | 42 | 0.0 | 0.0 | 0.00 | 0.00 | 0.14 | 100 | 1013.0 |
| 20260902003059 | 73 | 32 | 0.0 | 0.0 | 0.00 | 0.00 | 0.14 | 100 | 1012.8 |
| 20260902001650 | 73 | 32 | 0.0 | 0.0 | 0.00 | 0.00 | 0.14 | 100 | 1012.6 |
| 20260902000040 | 73 | 32 | 0.0 | 0.0 | 0.00 | 0.00 | 0.14 | 100 | 1012.5 |
| 20260901234530 | 74 | 32 | 0.0 | 0.0 | 0.00 | 0.00 | 0.14 | 100 | 1012.6 |
| 20260901233120 | 74 | 32 | 0.0 | 0.0 | 0.00 | 0.00 | 0.14 | 100 | 1012.5 |
| 20260901231511 | 74 | 32 | 0.0 | 0.0 | 0.00 | 0.00 | 0.14 | 100 | 1012.3 |
| 20260901230103 | 74 | 32 | 0.0 | 0.0 | 0.00 | 0.00 | 0.14 | 100 | 1012.4 |
| 20260901224557 | 74 | 32 | 0.0 | 0.0 | 0.00 | 0.00 | 0.14 | 100 | 1012.5 |
| 20260901223043 | 74 | 32 | 0.0 | 0.0 | 0.00 | 0.00 | 0.14 | 100 | 1012.5 |
| 20260901221635 | 74 | 32 | 0.0 | 0.0 | 0.00 | 0.00 | 0.14 | 100 | 1012.4 |
| 20260901220026 | 75 | 32 | 0.0 | 0.0 | 0.00 | 0.00 | 0.14 | 100 | 1012.6 |
| 20260901214516 | 75 | 35 | 0.0 | 0.0 | 0.00 | 0.00 | 0.14 | 100 | 1012.5 |
| 20260901213020 | 75 | 35 | 0.0 | 0.0 | 0.00 | 0.00 | 0.14 | 100 | 1012.3 |
| 20260901210048 | 75 | 35 | 0.0 | 0.0 | 0.00 | 0.00 | 0.14 | 100 | 1012.2 |
| 20260901204539 | 75 | 35 | 0.0 | 0.0 | 0.00 | 0.00 | 0.14 | 100 | 1012.2 |
| 20260901203041 | 74 | 35 | 0.0 | 0.0 | 0.00 | 0.00 | 0.14 | 100 | 1012.3 |
| 20260901201522 | 74 | 35 | 0.0 | 0.0 | 0.00 | 0.00 | 0.14 | 100 | 1012.4 |
| 20260901200114 | 75 | 29 | 0.0 | 0.0 | 0.00 | 0.00 | 0.14 | 100 | 1012.4 |
| 20260901194504 | 75 | 28 | 0.0 | 0.0 | 0.00 | 0.00 | 0.14 | 100 | 1012.4 |
| 20260901193101 | 75 | 46 | 0.0 | 0.0 | 0.00 | 0.00 | 0.14 | 100 | 1012.2 |
| 20260901191547 | 75 | 44 | 0.0 | 0.0 | 0.00 | 0.00 | 0.14 | 100 | 1012.2 |
| 20260901190037 | 75 | 53 | 2.6 | 0.0 | 0.00 | 0.00 | 0.14 | 100 | 1012.2 |
| 20260901184533 | 75 | 53 | 2.6 | 0.0 | 0.00 | 0.00 | 0.14 | 100 | 1012.2 |
| 20260901183019 | 76 | 27 | 3.5 | 0.0 | 0.00 | 0.00 | 0.14 | 100 | 1012.2 |
| 20260901181611 | 77 | 40 | 1.7 | 0.0 | 0.00 | 0.00 | 0.14 | 100 | 1012.2 |
| 20260901174656 | 77 | 344 | 0.0 | 0.0 | 0.00 | 0.00 | 0.14 | 100 | 1011.9 |
| 20260901173042 | 77 | 344 | 0.9 | 0.0 | 0.00 | 0.00 | 0.14 | 100 | 1011.8 |
| 20260901171533 | 78 | 344 | 0.0 | 0.0 | 0.00 | 0.00 | 0.14 | 100 | 1011.7 |
| 20260901170025 | 78 | 344 | 0.0 | 0.0 | 0.00 | 0.00 | 0.14 | 100 | 1011.7 |
| 20260901164515 | 77 | 344 | 0.0 | 0.0 | 0.00 | 0.00 | 0.14 | 100 | 1011.6 |
| 20260901163007 | 77 | 342 | 1.7 | 0.0 | 0.00 | 0.00 | 0.14 | 100 | 1011.6 |
| 20260901161559 | 76 | 342 | 1.7 | 0.0 | 0.00 | 0.00 | 0.14 | 100 | 1011.5 |
| 20260901160048 | 77 | 360 | 0.9 | 0.0 | 0.00 | 0.00 | 0.14 | 100 | 1011.5 |
| 20260901154537 | 77 | 18 | 0.9 | 0.0 | 0.00 | 0.00 | 0.14 | 100 | 1011.4 |
| 20260901153128 | 77 | 171 | 0.9 | 0.0 | 0.00 | 0.00 | 0.14 | 100 | 1011.3 |
| 20260901151519 | 76 | 171 | 1.7 | 0.0 | 0.00 | 0.00 | 0.14 | 100 | 1011.4 |
| 20260901150009 | 74 | 177 | 4.3 | 0.0 | 0.00 | 0.00 | 0.14 | 100 | 1011.2 |
| 20260901144601 | 74 | 181 | 4.3 | 0.0 | 0.00 | 0.00 | 0.14 | 100 | 1011.0 |
| 20260901143054 | 73 | 179 | 6.1 | 0.0 | 0.00 | 0.00 | 0.14 | 100 | 1011.0 |
| 20260901141554 | 72 | 190 | 7.0 | 0.0 | 0.00 | 0.00 | 0.14 | 100 | 1011.0 |
| 20260901140139 | 71 | 167 | 1.7 | 0.0 | 0.00 | 0.00 | 0.14 | 100 | 1011.2 |
| 20260901134525 | 71 | 167 | 2.6 | 0.0 | 0.00 | 0.00 | 0.14 | 100 | 1011.3 |
| 20260901133017 | 71 | 178 | 6.1 | 0.0 | 0.00 | 0.00 | 0.14 | 100 | 1011.2 |
| 20260901131519 | 70 | 186 | 7.0 | 0.0 | 0.00 | 0.00 | 0.14 | 100 | 1010.9 |
| 20260901130159 | 70 | 185 | 7.8 | 0.0 | 0.00 | 0.00 | 0.14 | 100 | 1011.1 |
| 20260901124550 | 70 | 175 | 7.0 | 0.0 | 0.00 | 0.00 | 0.14 | 100 | 1011.2 |
| 20260901123044 | 70 | 188 | 7.0 | 0.0 | 0.00 | 0.00 | 0.14 | 100 | 1011.4 |
| 20260901121535 | 69 | 189 | 7.8 | 0.0 | 0.00 | 0.00 | 0.14 | 100 | 1011.5 |
| 20260901120036 | 69 | 186 | 7.0 | 0.0 | 0.00 | 0.00 | 0.14 | 100 | 1011.5 |
| 20260901114516 | 69 | 185 | 7.0 | 0.0 | 0.00 | 0.00 | 0.14 | 100 | 1011.6 |
| 20260901113119 | 69 | 173 | 6.1 | 0.0 | 0.00 | 0.00 | 0.14 | 100 | 1011.5 |
| 20260901111554 | 69 | 185 | 6.1 | 0.0 | 0.00 | 0.00 | 0.14 | 100 | 1011.3 |
| 20260901110043 | 69 | 180 | 5.2 | 0.0 | 0.00 | 0.00 | 0.14 | 100 | 1011.4 |
| 20260901104535 | 69 | 172 | 5.2 | 0.0 | 0.00 | 0.00 | 0.14 | 100 | 1011.5 |
| 20260901103026 | 69 | 177 | 4.3 | 0.0 | 0.00 | 0.00 | 0.14 | 100 | 1011.9 |
| 20260901101518 | 69 | 166 | 3.5 | 0.0 | 0.00 | 0.00 | 0.14 | 100 | 1011.3 |
| 20260901100009 | 69 | 168 | 2.6 | 0.0 | 0.00 | 0.00 | 0.14 | 100 | 1011.4 |
| 20260901094558 | 69 | 166 | 1.7 | 0.0 | 0.00 | 0.00 | 0.14 | 100 | 1011.4 |
| 20260901093049 | 69 | 166 | 0.9 | 0.0 | 0.00 | 0.00 | 0.14 | 100 | 1011.6 |